Location: Newark
(46.7000°N, 60.6000°W)
Time: 12:44:13
(UTC+00:00)

A-11 Canister half - Pass Details

Date: 04 November 2020
Orbit: 1525 x 1684 km, 47.3° (Epoch: 01 December)

Event Time Altitude Azimuth Distance (km) Brightness Sun altitude
Rises 19:46:55 0° 274° (W) 4,781 12.6 7.5°
Reaches altitude 10° 19:50:02 10° 275° (W) 3,775 12.1 7.1°
Maximum altitude 19:59:36 88° 5° (N) 1,549 9.2 5.7°
Drops below altitude 10° 20:08:58 10° 97° (E) 3,693 10.5 4.3°
Sets 20:11:59 0° 98° (E) 4,672 11.0 3.8°
